Wetterdaten: Woche 29.01.18 - 04.02.18 (KW5)
Datum Zeit Temp. A. Pool Temp. Feuchte A. Luftdruck Regen Wind Richtung Sonnenschein ET UV Solar Taupunkt Windchill Windben Empfang
29.01.2018 00:00 8,8 C 3,9 C 77 % 1033,0 hPa 0,0 l/m 11,1 km/h (2 Bft) W-SW 0,00 h 0,000 mm 0,0 UV-I 0 W/m 5,0 C 5,8 C 16,2 km/h (3 Bft) 94,91 %
29.01.2018 01:00 8,7 C 3,9 C 76 % 1032,4 hPa 0,0 l/m 12,5 km/h (3 Bft) W-SW 0,00 h 0,025 mm 0,0 UV-I 0 W/m 4,7 C 4,9 C 18,0 km/h (3 Bft) 97,93 %
29.01.2018 02:00 8,6 C 3,9 C 77 % 1032,1 hPa 0,0 l/m 13,8 km/h (3 Bft) W-SW 0,00 h 0,026 mm 0,0 UV-I 0 W/m 4,9 C 4,1 C 19,5 km/h (3 Bft) 96,88 %
29.01.2018 03:00 8,3 C 3,9 C 79 % 1031,8 hPa 0,0 l/m 10,0 km/h (2 Bft) W-SW 0,00 h 0,025 mm 0,0 UV-I 0 W/m 4,9 C 5,8 C 14,2 km/h (3 Bft) 99,41 %
29.01.2018 04:00 8,1 C 3,9 C 81 % 1031,6 hPa 0,0 l/m 6,5 km/h (2 Bft) W-SW 0,00 h 0,026 mm 0,0 UV-I 0 W/m 5,1 C 7,8 C 10,3 km/h (2 Bft) 97,98 %
29.01.2018 05:00 8,1 C 3,9 C 81 % 1031,5 hPa 0,0 l/m 5,5 km/h (1 Bft) W-SW 0,00 h 0,025 mm 0,0 UV-I 0 W/m 5,1 C 7,8 C 8,9 km/h (2 Bft) 99,08 %
29.01.2018 06:00 8,3 C 3,9 C 80 % 1031,6 hPa 0,0 l/m 10,3 km/h (2 Bft) W 0,00 h 0,025 mm 0,0 UV-I 0 W/m 5,1 C 5,7 C 16,7 km/h (3 Bft) 96,37 %
29.01.2018 07:00 8,2 C 3,9 C 81 % 1031,5 hPa 0,0 l/m 9,5 km/h (2 Bft) W-SW 0,00 h 0,026 mm 0,0 UV-I 7 W/m 5,1 C 6,0 C 15,1 km/h (3 Bft) 98,09 %
29.01.2018 08:00 8,1 C 3,9 C 80 % 1031,5 hPa 0,0 l/m 13,1 km/h (3 Bft) W-SW 0,43 h 0,025 mm 0,0 UV-I 75 W/m 5,0 C 3,8 C 19,8 km/h (3 Bft) 98,73 %
29.01.2018 09:00 8,4 C 3,9 C 80 % 1031,2 hPa 0,0 l/m 14,8 km/h (3 Bft) W 0,70 h 0,051 mm 0,5 UV-I 193 W/m 5,1 C 3,4 C 22,0 km/h (4 Bft) 98,87 %
29.01.2018 10:00 9,1 C 3,9 C 78 % 1030,7 hPa 0,0 l/m 10,5 km/h (2 Bft) W 0,70 h 0,127 mm 0,7 UV-I 222 W/m 5,5 C 6,5 C 18,1 km/h (3 Bft) 98,50 %
29.01.2018 11:00 9,8 C 4,2 C 76 % 1030,0 hPa 0,0 l/m 6,6 km/h (2 Bft) W-SW 0,93 h 0,127 mm 1,0 UV-I 396 W/m 5,9 C 9,3 C 13,1 km/h (3 Bft) 99,60 %
29.01.2018 12:00 10,5 C 4,4 C 75 % 1028,9 hPa 0,0 l/m 4,9 km/h (1 Bft) W-NW 1,00 h 0,203 mm 1,1 UV-I 413 W/m 6,3 C 10,4 C 11,3 km/h (2 Bft) 98,27 %
29.01.2018 13:00 10,9 C 4,4 C 74 % 1027,8 hPa 0,0 l/m 4,9 km/h (1 Bft) W 1,00 h 0,203 mm 0,9 UV-I 373 W/m 6,4 C 10,7 C 11,6 km/h (2 Bft) 98,35 %
29.01.2018 14:00 10,8 C 4,4 C 75 % 1026,8 hPa 0,0 l/m 4,3 km/h (1 Bft) W-NW 1,00 h 0,178 mm 0,6 UV-I 284 W/m 6,5 C 10,7 C 9,5 km/h (2 Bft) 98,88 %
29.01.2018 15:00 9,8 C 4,4 C 79 % 1026,0 hPa 0,0 l/m 3,2 km/h (1 Bft) W-NW 1,00 h 0,153 mm 0,0 UV-I 165 W/m 6,4 C 9,8 C 7,1 km/h (2 Bft) 97,76 %
29.01.2018 16:00 8,7 C 4,4 C 82 % 1025,2 hPa 0,0 l/m 2,6 km/h (1 Bft) W 0,80 h 0,076 mm 0,0 UV-I 46 W/m 5,9 C 8,7 C 5,8 km/h (2 Bft) 96,24 %
29.01.2018 17:00 6,9 C 4,4 C 89 % 1024,8 hPa 0,0 l/m 1,9 km/h (1 Bft) W-SW 0,00 h 0,025 mm 0,0 UV-I 6 W/m 5,2 C 6,9 C 3,6 km/h (1 Bft) 99,17 %
29.01.2018 18:00 5,5 C 4,4 C 92 % 1024,5 hPa 0,0 l/m 3,4 km/h (1 Bft) W-SW 0,00 h 0,000 mm 0,0 UV-I 0 W/m 4,3 C 5,5 C 5,1 km/h (1 Bft) 98,78 %
29.01.2018 19:00 5,5 C 4,4 C 93 % 1024,3 hPa 0,0 l/m 7,0 km/h (2 Bft) W 0,00 h 0,000 mm 0,0 UV-I 0 W/m 4,4 C 4,4 C 10,3 km/h (2 Bft) 97,61 %
29.01.2018 20:00 5,4 C 4,4 C 92 % 1024,5 hPa 0,0 l/m 9,0 km/h (2 Bft) W-SW 0,00 h 0,000 mm 0,0 UV-I 0 W/m 4,3 C 3,2 C 12,7 km/h (3 Bft) 96,99 %
29.01.2018 21:00 5,4 C 4,4 C 93 % 1025,0 hPa 0,0 l/m 9,1 km/h (2 Bft) W-SW 0,00 h 0,000 mm 0,0 UV-I 0 W/m 4,3 C 3,3 C 13,9 km/h (3 Bft) 98,08 %
29.01.2018 22:00 6,9 C 4,4 C 89 % 1025,4 hPa 0,0 l/m 13,4 km/h (3 Bft) W-SW 0,00 h 0,000 mm 0,0 UV-I 0 W/m 5,3 C 2,3 C 20,1 km/h (4 Bft) 98,88 %
29.01.2018 23:00 8,1 C 4,4 C 84 % 1026,1 hPa 0,0 l/m 19,7 km/h (3 Bft) W 0,00 h 0,026 mm 0,0 UV-I 0 W/m 5,5 C 1,0 C 30,1 km/h (5 Bft) 96,90 %
30.01.2018 00:00 8,3 C 4,4 C 78 % 1026,3 hPa 0,0 l/m 20,0 km/h (4 Bft) W-SW 0,00 h 0,000 mm 0,0 UV-I 0 W/m 4,7 C 1,1 C 30,0 km/h (5 Bft) 94,36 %
30.01.2018 01:00 8,3 C 4,4 C 78 % 1025,7 hPa 0,0 l/m 20,8 km/h (4 Bft) SW 0,00 h 0,051 mm 0,0 UV-I 0 W/m 4,6 C 0,8 C 31,6 km/h (5 Bft) 96,04 %
30.01.2018 02:00 8,3 C 4,4 C 77 % 1025,6 hPa 0,0 l/m 22,9 km/h (4 Bft) W-SW 0,00 h 0,051 mm 0,0 UV-I 0 W/m 4,5 C 0,2 C 35,0 km/h (5 Bft) 99,29 %
30.01.2018 03:00 8,0 C 4,4 C 80 % 1025,6 hPa 0,0 l/m 24,6 km/h (4 Bft) W-SW 0,00 h 0,050 mm 0,0 UV-I 0 W/m 4,7 C -0,7 C 38,5 km/h (5 Bft) 97,77 %
30.01.2018 04:00 7,6 C 4,4 C 84 % 1025,7 hPa 0,0 l/m 21,0 km/h (4 Bft) W-SW 0,00 h 0,051 mm 0,0 UV-I 0 W/m 5,0 C -0,1 C 32,1 km/h (5 Bft) 98,36 %
30.01.2018 05:00 7,5 C 4,4 C 84 % 1026,4 hPa 0,0 l/m 15,0 km/h (3 Bft) SW 0,00 h 0,026 mm 0,0 UV-I 0 W/m 5,0 C 2,2 C 22,5 km/h (4 Bft) 96,32 %
30.01.2018 06:00 7,3 C 4,4 C 85 % 1026,6 hPa 0,0 l/m 19,4 km/h (3 Bft) SW 0,00 h 0,025 mm 0,0 UV-I 0 W/m 5,0 C 0,1 C 28,3 km/h (4 Bft) 99,33 %
30.01.2018 07:00 6,7 C 4,4 C 88 % 1027,3 hPa 0,8 l/m 15,1 km/h (3 Bft) W-SW 0,00 h 0,025 mm 0,0 UV-I 5 W/m 4,8 C 1,3 C 24,0 km/h (4 Bft) 98,22 %
30.01.2018 08:00 5,4 C 4,4 C 94 % 1028,2 hPa 0,8 l/m 13,1 km/h (3 Bft) W-SW 0,00 h 0,026 mm 0,0 UV-I 22 W/m 4,5 C 0,7 C 23,0 km/h (4 Bft) 98,80 %
30.01.2018 09:00 5,8 C 4,4 C 93 % 1028,6 hPa 0,0 l/m 13,2 km/h (3 Bft) W 0,00 h 0,025 mm 0,0 UV-I 74 W/m 4,7 C 1,0 C 21,4 km/h (4 Bft) 96,36 %
30.01.2018 10:00 6,0 C 4,4 C 88 % 1028,8 hPa 0,0 l/m 14,4 km/h (3 Bft) W-SW 0,00 h 0,051 mm 0,0 UV-I 71 W/m 4,1 C 0,6 C 22,0 km/h (4 Bft) 98,96 %
30.01.2018 11:00 6,2 C 4,4 C 84 % 1028,9 hPa 0,0 l/m 12,3 km/h (3 Bft) W 0,00 h 0,051 mm 0,0 UV-I 67 W/m 3,7 C 2,0 C 19,4 km/h (3 Bft) 98,78 %
30.01.2018 12:00 6,3 C 4,4 C 83 % 1028,9 hPa 0,0 l/m 10,7 km/h (2 Bft) W-SW 0,00 h 0,051 mm 0,3 UV-I 95 W/m 3,6 C 3,2 C 17,1 km/h (3 Bft) 98,32 %
30.01.2018 13:00 6,3 C 4,4 C 86 % 1028,7 hPa 0,0 l/m 10,5 km/h (2 Bft) W-SW 0,00 h 0,050 mm 0,4 UV-I 117 W/m 4,1 C 3,2 C 16,6 km/h (3 Bft) 96,64 %
30.01.2018 14:00 6,4 C 4,4 C 86 % 1028,3 hPa 0,0 l/m 8,8 km/h (2 Bft) SW 0,07 h 0,051 mm 0,0 UV-I 128 W/m 4,3 C 4,5 C 14,0 km/h (3 Bft) 98,54 %
30.01.2018 15:00 6,7 C 4,4 C 84 % 1028,0 hPa 0,0 l/m 11,0 km/h (2 Bft) W-SW 0,70 h 0,076 mm 0,0 UV-I 122 W/m 4,2 C 3,5 C 16,8 km/h (3 Bft) 98,90 %
30.01.2018 16:00 6,4 C 4,4 C 83 % 1027,6 hPa 0,0 l/m 8,3 km/h (2 Bft) W-SW 0,33 h 0,077 mm 0,0 UV-I 35 W/m 3,8 C 4,9 C 12,8 km/h (3 Bft) 98,59 %
30.01.2018 17:00 4,8 C 4,4 C 87 % 1027,3 hPa 0,0 l/m 3,4 km/h (1 Bft) SW 0,00 h 0,025 mm 0,0 UV-I 6 W/m 2,7 C 4,7 C 5,8 km/h (2 Bft) 97,17 %
30.01.2018 18:00 3,6 C 4,4 C 90 % 1027,1 hPa 0,0 l/m 2,0 km/h (1 Bft) S-SW 0,00 h 0,000 mm 0,0 UV-I 0 W/m 2,2 C 3,6 C 3,7 km/h (1 Bft) 97,46 %
30.01.2018 19:00 2,4 C 4,4 C 94 % 1027,1 hPa 0,0 l/m 1,2 km/h (1 Bft) S-SW 0,00 h 0,000 mm 0,0 UV-I 0 W/m 1,6 C 2,4 C 2,5 km/h (1 Bft) 99,21 %
30.01.2018 20:00 2,3 C 4,4 C 95 % 1026,8 hPa 0,0 l/m 2,6 km/h (1 Bft) S-SW 0,00 h 0,000 mm 0,0 UV-I 0 W/m 1,6 C 2,3 C 3,9 km/h (1 Bft) 98,00 %
30.01.2018 21:00 1,9 C 4,4 C 96 % 1026,4 hPa 0,0 l/m 2,7 km/h (1 Bft) S-SW 0,00 h 0,000 mm 0,0 UV-I 0 W/m 1,4 C 1,9 C 4,4 km/h (1 Bft) 96,56 %
30.01.2018 22:00 2,1 C 4,4 C 96 % 1025,9 hPa 0,0 l/m 2,5 km/h (1 Bft) S-SW 0,00 h 0,000 mm 0,0 UV-I 0 W/m 1,5 C 2,1 C 4,6 km/h (1 Bft) 97,48 %
30.01.2018 23:00 1,8 C 4,4 C 96 % 1025,3 hPa 0,0 l/m 4,5 km/h (1 Bft) NO 0,00 h 0,000 mm 0,0 UV-I 0 W/m 1,3 C 1,8 C 6,1 km/h (2 Bft) 97,13 %
31.01.2018 00:00 1,3 C 4,4 C 97 % 1024,8 hPa 0,0 l/m 0,7 km/h (0 Bft) O-NO 0,00 h 0,000 mm 0,0 UV-I 0 W/m 0,8 C 1,3 C 2,0 km/h (1 Bft) 99,34 %
31.01.2018 01:00 1,4 C 4,4 C 97 % 1024,2 hPa 0,0 l/m 1,3 km/h (1 Bft) S-SW 0,00 h 0,000 mm 0,0 UV-I 0 W/m 1,0 C 1,4 C 2,9 km/h (1 Bft) 95,49 %
31.01.2018 02:00 1,7 C 4,4 C 97 % 1024,0 hPa 0,0 l/m 0,8 km/h (0 Bft) S-SW 0,00 h 0,000 mm 0,0 UV-I 0 W/m 1,3 C 1,7 C 1,7 km/h (1 Bft) 97,59 %
31.01.2018 03:00 1,7 C 4,4 C 97 % 1023,4 hPa 0,0 l/m 1,6 km/h (1 Bft) S-SW 0,00 h 0,000 mm 0,0 UV-I 0 W/m 1,3 C 1,7 C 2,8 km/h (1 Bft) 98,06 %
31.01.2018 04:00 1,7 C 4,4 C 97 % 1022,9 hPa 0,0 l/m 0,6 km/h (0 Bft) O-NO 0,00 h 0,000 mm 0,0 UV-I 0 W/m 1,3 C 1,7 C 1,3 km/h (1 Bft) 99,17 %
31.01.2018 05:00 1,7 C 4,4 C 97 % 1022,6 hPa 0,0 l/m 0,8 km/h (0 Bft) NW 0,00 h 0,000 mm 0,0 UV-I 0 W/m 1,4 C 1,7 C 1,9 km/h (1 Bft) 96,70 %
31.01.2018 06:00 2,3 C 4,4 C 97 % 1021,9 hPa 0,0 l/m 2,1 km/h (1 Bft) S-SO 0,00 h 0,000 mm 0,0 UV-I 0 W/m 1,9 C 2,3 C 4,2 km/h (1 Bft) 97,97 %
31.01.2018 07:00 2,4 C 4,4 C 97 % 1021,7 hPa 0,0 l/m 0,8 km/h (0 Bft) NO 0,00 h 0,000 mm 0,0 UV-I 5 W/m 1,9 C 2,4 C 1,7 km/h (1 Bft) 97,59 %
31.01.2018 08:00 2,4 C 4,4 C 97 % 1021,1 hPa 0,0 l/m 2,1 km/h (1 Bft) O-SO 0,10 h 0,000 mm 0,0 UV-I 51 W/m 2,0 C 2,4 C 4,1 km/h (1 Bft) 98,96 %
31.01.2018 09:00 3,5 C 4,4 C 94 % 1020,1 hPa 0,0 l/m 3,1 km/h (1 Bft) SO 0,20 h 0,025 mm 0,0 UV-I 123 W/m 2,6 C 3,2 C 5,9 km/h (2 Bft) 97,59 %
31.01.2018 10:00 3,7 C 4,4 C 95 % 1019,6 hPa 0,0 l/m 6,0 km/h (2 Bft) NO 0,27 h 0,051 mm 0,5 UV-I 179 W/m 2,9 C 3,4 C 9,0 km/h (2 Bft) 97,42 %
31.01.2018 11:00 4,8 C 4,4 C 92 % 1018,5 hPa 0,0 l/m 6,7 km/h (2 Bft) NO 1,00 h 0,076 mm 0,8 UV-I 321 W/m 3,6 C 4,2 C 9,9 km/h (2 Bft) 97,64 %
31.01.2018 12:00 6,8 C 4,4 C 87 % 1016,9 hPa 0,0 l/m 5,5 km/h (1 Bft) NO 1,00 h 0,127 mm 1,0 UV-I 430 W/m 4,8 C 6,5 C 8,6 km/h (2 Bft) 97,30 %
31.01.2018 13:00 7,8 C 4,4 C 82 % 1015,3 hPa 0,0 l/m 6,5 km/h (2 Bft) NO 1,00 h 0,178 mm 0,8 UV-I 378 W/m 5,0 C 7,3 C 9,6 km/h (2 Bft) 97,15 %
31.01.2018 14:00 8,2 C 4,4 C 79 % 1013,8 hPa 0,0 l/m 8,4 km/h (2 Bft) O-NO 0,80 h 0,178 mm 0,6 UV-I 250 W/m 4,9 C 6,7 C 12,2 km/h (2 Bft) 98,20 %
31.01.2018 15:00 7,9 C 4,4 C 81 % 1012,5 hPa 0,0 l/m 5,9 km/h (2 Bft) O-NO 0,87 h 0,127 mm 0,0 UV-I 152 W/m 4,8 C 7,6 C 9,1 km/h (2 Bft) 97,34 %
31.01.2018 16:00 7,4 C 4,4 C 82 % 1011,2 hPa 0,0 l/m 6,5 km/h (2 Bft) O-NO 0,87 h 0,076 mm 0,0 UV-I 50 W/m 4,5 C 7,0 C 9,4 km/h (2 Bft) 96,49 %
31.01.2018 17:00 6,2 C 4,4 C 85 % 1010,3 hPa 0,2 l/m 6,2 km/h (2 Bft) O-NO 0,00 h 0,026 mm 0,0 UV-I 6 W/m 3,9 C 5,4 C 9,2 km/h (2 Bft) 99,20 %
31.01.2018 18:00 5,7 C 4,4 C 86 % 1009,4 hPa 0,0 l/m 4,7 km/h (1 Bft) O-NO 0,00 h 0,000 mm 0,0 UV-I 0 W/m 3,5 C 4,8 C 7,6 km/h (2 Bft) 98,86 %
31.01.2018 19:00 3,0 C 4,4 C 93 % 1008,6 hPa 0,0 l/m 2,0 km/h (1 Bft) SO 0,00 h 0,000 mm 0,0 UV-I 0 W/m 2,0 C 3,0 C 3,5 km/h (1 Bft) 96,78 %
31.01.2018 20:00 2,3 C 4,4 C 94 % 1007,7 hPa 0,0 l/m 3,0 km/h (1 Bft) SO 0,00 h 0,000 mm 0,0 UV-I 0 W/m 1,5 C 2,3 C 4,6 km/h (1 Bft) 98,40 %
31.01.2018 21:00 1,7 C 4,4 C 95 % 1006,9 hPa 0,0 l/m 0,9 km/h (0 Bft) S-SO 0,00 h 0,000 mm 0,0 UV-I 0 W/m 1,0 C 1,7 C 2,1 km/h (1 Bft) 97,73 %
31.01.2018 22:00 2,2 C 4,4 C 94 % 1006,1 hPa 0,0 l/m 3,5 km/h (1 Bft) SO 0,00 h 0,000 mm 0,0 UV-I 0 W/m 1,3 C 2,0 C 6,4 km/h (2 Bft) 99,44 %
31.01.2018 23:00 1,4 C 4,4 C 94 % 1005,2 hPa 0,0 l/m 2,5 km/h (1 Bft) W 0,00 h 0,000 mm 0,0 UV-I 0 W/m 0,6 C 1,4 C 4,8 km/h (1 Bft) 97,02 %
01.02.2018 00:00 1,3 C 4,4 C 95 % 1004,8 hPa 0,0 l/m 0,9 km/h (0 Bft) S 0,00 h 0,000 mm 0,0 UV-I 0 W/m 0,5 C 1,3 C 2,7 km/h (1 Bft) 97,45 %
01.02.2018 01:00 0,8 C 4,4 C 95 % 1004,6 hPa 0,0 l/m 1,1 km/h (1 Bft) NW 0,00 h 0,000 mm 0,0 UV-I 0 W/m 0,1 C 0,8 C 2,9 km/h (1 Bft) 98,66 %
01.02.2018 02:00 0,9 C 4,4 C 96 % 1004,3 hPa 0,0 l/m 1,4 km/h (1 Bft) S 0,00 h 0,000 mm 0,0 UV-I 0 W/m 0,3 C 0,9 C 2,9 km/h (1 Bft) 98,77 %
01.02.2018 03:00 1,6 C 4,4 C 94 % 1003,4 hPa 0,0 l/m 2,8 km/h (1 Bft) S-SW 0,00 h 0,000 mm 0,0 UV-I 0 W/m 0,7 C 1,6 C 4,8 km/h (1 Bft) 98,54 %
01.02.2018 04:00 2,0 C 4,4 C 92 % 1002,9 hPa 0,0 l/m 1,6 km/h (1 Bft) S 0,00 h 0,000 mm 0,0 UV-I 0 W/m 0,9 C 2,0 C 3,5 km/h (1 Bft) 96,41 %
01.02.2018 05:00 1,5 C 4,4 C 94 % 1003,0 hPa 0,0 l/m 3,5 km/h (1 Bft) NO 0,00 h 0,000 mm 0,0 UV-I 0 W/m 0,6 C 1,5 C 5,4 km/h (1 Bft) 99,43 %
01.02.2018 06:00 1,6 C 4,4 C 95 % 1003,0 hPa 0,0 l/m 0,3 km/h (0 Bft) NO 0,00 h 0,000 mm 0,0 UV-I 0 W/m 0,9 C 1,6 C 1,1 km/h (1 Bft) 97,95 %
01.02.2018 07:00 1,8 C 4,4 C 95 % 1003,0 hPa 0,0 l/m 0,3 km/h (0 Bft) NO 0,00 h 0,000 mm 0,0 UV-I 8 W/m 1,0 C 1,8 C 1,2 km/h (1 Bft) 99,25 %
01.02.2018 08:00 2,2 C 4,4 C 94 % 1003,2 hPa 0,2 l/m 1,2 km/h (1 Bft) NW 0,00 h 0,000 mm 0,0 UV-I 18 W/m 1,4 C 2,2 C 2,5 km/h (1 Bft) 95,82 %
01.02.2018 09:00 3,8 C 4,4 C 93 % 1003,1 hPa 0,2 l/m 4,5 km/h (1 Bft) S-SO 0,00 h 0,000 mm 0,0 UV-I 53 W/m 2,7 C 3,8 C 8,3 km/h (2 Bft) 99,43 %
01.02.2018 10:00 5,1 C 4,4 C 92 % 1002,8 hPa 0,0 l/m 3,1 km/h (1 Bft) S-SW 0,00 h 0,025 mm 0,0 UV-I 75 W/m 4,0 C 5,1 C 5,4 km/h (1 Bft) 98,41 %
01.02.2018 11:00 6,1 C 4,4 C 90 % 1002,6 hPa 0,0 l/m 2,0 km/h (1 Bft) W 0,00 h 0,026 mm 0,2 UV-I 138 W/m 4,6 C 6,1 C 3,8 km/h (1 Bft) 99,30 %
01.02.2018 12:00 5,8 C 4,4 C 92 % 1002,3 hPa 0,4 l/m 3,0 km/h (1 Bft) W 0,00 h 0,051 mm 0,0 UV-I 76 W/m 4,7 C 5,8 C 4,9 km/h (1 Bft) 97,72 %
01.02.2018 13:00 5,5 C 4,6 C 95 % 1002,3 hPa 0,6 l/m 6,2 km/h (2 Bft) W 0,00 h 0,025 mm 0,0 UV-I 67 W/m 4,7 C 5,1 C 9,9 km/h (2 Bft) 97,02 %
01.02.2018 14:00 5,0 C 4,7 C 93 % 1002,8 hPa 0,8 l/m 16,3 km/h (3 Bft) W-SW 0,00 h 0,025 mm 0,0 UV-I 54 W/m 3,9 C -1,5 C 24,9 km/h (4 Bft) 96,79 %
01.02.2018 15:00 3,6 C 5,0 C 94 % 1003,9 hPa 0,4 l/m 11,3 km/h (2 Bft) W-SW 0,00 h 0,026 mm 0,0 UV-I 35 W/m 2,6 C -0,3 C 18,0 km/h (3 Bft) 98,99 %
01.02.2018 16:00 3,4 C 5,0 C 94 % 1004,6 hPa 0,2 l/m 13,1 km/h (3 Bft) SW 0,00 h 0,025 mm 0,0 UV-I 13 W/m 2,4 C -1,7 C 20,4 km/h (4 Bft) 98,77 %
01.02.2018 17:00 2,9 C 5,0 C 94 % 1005,3 hPa 0,0 l/m 13,0 km/h (3 Bft) SW 0,00 h 0,000 mm 0,0 UV-I 5 W/m 2,0 C -2,3 C 20,3 km/h (4 Bft) 96,63 %
01.02.2018 18:00 2,3 C 5,0 C 94 % 1006,0 hPa 0,0 l/m 12,1 km/h (2 Bft) S-SW 0,00 h 0,000 mm 0,0 UV-I 0 W/m 1,5 C -2,3 C 18,9 km/h (3 Bft) 98,62 %
01.02.2018 19:00 2,1 C 5,0 C 94 % 1006,4 hPa 0,2 l/m 11,1 km/h (2 Bft) S-SW 0,00 h 0,000 mm 0,0 UV-I 0 W/m 1,2 C -1,9 C 17,1 km/h (3 Bft) 98,48 %
01.02.2018 20:00 2,1 C 5,0 C 94 % 1006,4 hPa 0,0 l/m 7,6 km/h (2 Bft) S-SW 0,00 h 0,000 mm 0,0 UV-I 0 W/m 1,2 C 0,8 C 12,3 km/h (3 Bft) 99,15 %
01.02.2018 21:00 2,0 C 5,0 C 94 % 1006,7 hPa 0,0 l/m 3,2 km/h (1 Bft) SW 0,00 h 0,000 mm 0,0 UV-I 0 W/m 1,1 C 2,0 C 5,4 km/h (1 Bft) 96,13 %
01.02.2018 22:00 1,6 C 5,0 C 96 % 1006,8 hPa 0,0 l/m 0,5 km/h (0 Bft) SW 0,00 h 0,000 mm 0,0 UV-I 0 W/m 1,0 C 1,6 C 1,2 km/h (1 Bft) 98,99 %
01.02.2018 23:00 1,3 C 4,8 C 96 % 1006,9 hPa 0,0 l/m 2,8 km/h (1 Bft) SW 0,00 h 0,000 mm 0,0 UV-I 0 W/m 0,7 C 1,3 C 4,4 km/h (1 Bft) 98,07 %
02.02.2018 00:00 1,2 C 4,5 C 96 % 1007,0 hPa 0,0 l/m 2,8 km/h (1 Bft) S-SW 0,00 h 0,000 mm 0,0 UV-I 0 W/m 0,6 C 1,2 C 4,7 km/h (1 Bft) 99,14 %
02.02.2018 01:00 1,0 C 4,6 C 96 % 1006,8 hPa 0,0 l/m 0,3 km/h (0 Bft) S-SO 0,00 h 0,000 mm 0,0 UV-I 0 W/m 0,4 C 1,0 C 1,1 km/h (1 Bft) 95,55 %
02.02.2018 02:00 0,8 C 4,5 C 95 % 1006,7 hPa 0,0 l/m 2,6 km/h (1 Bft) SW 0,00 h 0,000 mm 0,0 UV-I 0 W/m 0,1 C 0,8 C 4,5 km/h (1 Bft) 99,16 %
02.02.2018 03:00 0,7 C 4,4 C 95 % 1006,5 hPa 0,0 l/m 1,2 km/h (1 Bft) S-SO 0,00 h 0,000 mm 0,0 UV-I 0 W/m 0,0 C 0,7 C 3,6 km/h (1 Bft) 97,75 %
02.02.2018 04:00 1,0 C 4,4 C 94 % 1006,7 hPa 0,0 l/m 1,6 km/h (1 Bft) S 0,00 h 0,000 mm 0,0 UV-I 0 W/m 0,1 C 1,0 C 4,2 km/h (1 Bft) 99,12 %
02.02.2018 05:00 1,2 C 4,4 C 92 % 1007,0 hPa 0,0 l/m 2,9 km/h (1 Bft) SW 0,00 h 0,000 mm 0,0 UV-I 0 W/m 0,1 C 1,2 C 4,9 km/h (1 Bft) 95,07 %
02.02.2018 06:00 1,1 C 4,4 C 92 % 1007,1 hPa 0,0 l/m 1,4 km/h (1 Bft) S-SW 0,00 h 0,000 mm 0,0 UV-I 0 W/m -0,0 C 1,1 C 2,6 km/h (1 Bft) 98,93 %
02.02.2018 07:00 1,6 C 4,4 C 88 % 1007,4 hPa 0,0 l/m 5,1 km/h (1 Bft) SW 0,00 h 0,000 mm 0,0 UV-I 7 W/m -0,1 C 1,5 C 7,6 km/h (2 Bft) 97,99 %
02.02.2018 08:00 1,6 C 4,4 C 88 % 1007,5 hPa 0,0 l/m 4,4 km/h (1 Bft) W-SW 0,00 h 0,000 mm 0,0 UV-I 33 W/m -0,0 C 1,6 C 6,2 km/h (2 Bft) 99,23 %
02.02.2018 09:00 1,8 C 4,4 C 90 % 1007,9 hPa 0,0 l/m 2,7 km/h (1 Bft) SW 0,00 h 0,025 mm 0,0 UV-I 72 W/m 0,4 C 1,8 C 4,4 km/h (1 Bft) 96,52 %
02.02.2018 10:00 2,7 C 4,4 C 88 % 1008,0 hPa 0,0 l/m 5,4 km/h (1 Bft) W-SW 0,00 h 0,026 mm 0,0 UV-I 122 W/m 0,9 C 2,6 C 8,4 km/h (2 Bft) 98,41 %
02.02.2018 11:00 3,3 C 4,4 C 84 % 1008,0 hPa 0,0 l/m 8,3 km/h (2 Bft) W-SW 0,00 h 0,051 mm 0,0 UV-I 146 W/m 0,9 C 1,6 C 13,0 km/h (3 Bft) 98,69 %
02.02.2018 12:00 3,6 C 4,4 C 82 % 1007,6 hPa 0,0 l/m 9,3 km/h (2 Bft) W-SW 0,00 h 0,076 mm 0,0 UV-I 139 W/m 0,8 C 1,2 C 14,5 km/h (3 Bft) 98,98 %
02.02.2018 13:00 3,8 C 4,4 C 79 % 1007,5 hPa 0,0 l/m 9,6 km/h (2 Bft) W-SW 0,00 h 0,076 mm 0,0 UV-I 143 W/m 0,5 C 1,1 C 15,4 km/h (3 Bft) 97,09 %
02.02.2018 14:00 3,8 C 4,4 C 76 % 1007,4 hPa 0,0 l/m 9,8 km/h (2 Bft) W-SW 0,03 h 0,076 mm 0,0 UV-I 118 W/m -0,1 C 1,0 C 15,4 km/h (3 Bft) 96,88 %
02.02.2018 15:00 3,8 C 4,5 C 71 % 1007,5 hPa 0,0 l/m 9,1 km/h (2 Bft) W-SW 0,37 h 0,076 mm 0,0 UV-I 113 W/m -1,0 C 1,5 C 14,3 km/h (3 Bft) 98,36 %
02.02.2018 16:00 3,3 C 4,8 C 76 % 1007,5 hPa 0,0 l/m 7,2 km/h (2 Bft) W-SW 0,73 h 0,077 mm 0,0 UV-I 49 W/m -0,6 C 2,4 C 11,5 km/h (2 Bft) 98,62 %
02.02.2018 17:00 2,0 C 4,8 C 81 % 1007,9 hPa 0,0 l/m 5,2 km/h (1 Bft) SW 0,00 h 0,025 mm 0,0 UV-I 6 W/m -1,0 C 1,9 C 7,8 km/h (2 Bft) 98,18 %
02.02.2018 18:00 1,0 C 5,0 C 85 % 1008,2 hPa 0,0 l/m 3,8 km/h (1 Bft) SW 0,00 h 0,000 mm 0,0 UV-I 0 W/m -1,3 C 1,0 C 5,8 km/h (2 Bft) 96,23 %
02.02.2018 19:00 0,8 C 5,0 C 85 % 1008,2 hPa 0,0 l/m 4,0 km/h (1 Bft) S 0,00 h 0,000 mm 0,0 UV-I 0 W/m -1,4 C 0,8 C 6,6 km/h (2 Bft) 99,34 %
02.02.2018 20:00 0,6 C 4,8 C 84 % 1008,3 hPa 0,0 l/m 5,6 km/h (1 Bft) S-SW 0,00 h 0,000 mm 0,0 UV-I 0 W/m -1,8 C 0,4 C 8,1 km/h (2 Bft) 97,62 %
02.02.2018 21:00 0,4 C 4,5 C 86 % 1008,2 hPa 0,0 l/m 4,1 km/h (1 Bft) SW 0,00 h 0,000 mm 0,0 UV-I 0 W/m -1,7 C 0,4 C 6,6 km/h (2 Bft) 99,24 %
02.02.2018 22:00 -0,4 C 4,4 C 89 % 1008,4 hPa 0,0 l/m 4,3 km/h (1 Bft) SW 0,00 h 0,000 mm 0,0 UV-I 0 W/m -2,0 C -0,4 C 6,0 km/h (2 Bft) 95,58 %
02.02.2018 23:00 -0,8 C 4,4 C 91 % 1008,5 hPa 0,0 l/m 4,2 km/h (1 Bft) S-SW 0,00 h 0,000 mm 0,0 UV-I 0 W/m -2,2 C -0,8 C 6,3 km/h (2 Bft) 98,93 %
03.02.2018 00:00 -0,5 C 4,4 C 90 % 1008,3 hPa 0,0 l/m 5,9 km/h (2 Bft) S-SW 0,00 h 0,000 mm 0,0 UV-I 0 W/m -1,8 C -0,8 C 9,0 km/h (2 Bft) 98,19 %
03.02.2018 01:00 -0,2 C 4,4 C 90 % 1007,9 hPa 0,0 l/m 1,9 km/h (1 Bft) W-SW 0,00 h 0,000 mm 0,0 UV-I 0 W/m -1,6 C -0,2 C 3,2 km/h (1 Bft) 98,45 %
03.02.2018 02:00 -0,1 C 4,4 C 90 % 1007,8 hPa 0,0 l/m 5,1 km/h (1 Bft) SW 0,00 h 0,000 mm 0,0 UV-I 0 W/m -1,6 C -0,2 C 7,4 km/h (2 Bft) 96,69 %
03.02.2018 03:00 0,3 C 4,4 C 87 % 1007,1 hPa 0,0 l/m 6,0 km/h (2 Bft) SW 0,00 h 0,000 mm 0,0 UV-I 0 W/m -1,6 C 0,1 C 8,6 km/h (2 Bft) 97,00 %
03.02.2018 04:00 0,3 C 4,4 C 87 % 1006,8 hPa 0,0 l/m 4,5 km/h (1 Bft) W-SW 0,00 h 0,000 mm 0,0 UV-I 0 W/m -1,6 C 0,2 C 6,8 km/h (2 Bft) 98,99 %
03.02.2018 05:00 -0,0 C 4,4 C 89 % 1006,7 hPa 0,0 l/m 1,5 km/h (1 Bft) N-NW 0,00 h 0,000 mm 0,0 UV-I 0 W/m -1,6 C -0,0 C 2,8 km/h (1 Bft) 97,36 %
03.02.2018 06:00 -0,2 C 4,4 C 91 % 1006,3 hPa 0,0 l/m 2,4 km/h (1 Bft) S-SW 0,00 h 0,000 mm 0,0 UV-I 0 W/m -1,4 C -0,2 C 3,8 km/h (1 Bft) 97,60 %
03.02.2018 07:00 0,6 C 4,4 C 87 % 1006,0 hPa 0,0 l/m 7,4 km/h (2 Bft) W-SW 0,00 h 0,000 mm 0,0 UV-I 8 W/m -1,2 C -0,5 C 11,3 km/h (2 Bft) 96,73 %
03.02.2018 08:00 0,7 C 4,4 C 87 % 1006,2 hPa 0,0 l/m 6,0 km/h (2 Bft) SW 0,00 h 0,000 mm 0,0 UV-I 26 W/m -1,2 C 0,5 C 9,1 km/h (2 Bft) 99,25 %
03.02.2018 09:00 0,9 C 4,4 C 87 % 1005,9 hPa 0,0 l/m 6,5 km/h (2 Bft) W-SW 0,00 h 0,025 mm 0,0 UV-I 54 W/m -1,0 C 0,4 C 10,4 km/h (2 Bft) 97,99 %
03.02.2018 10:00 1,0 C 4,4 C 91 % 1005,7 hPa 0,0 l/m 6,9 km/h (2 Bft) W-SW 0,00 h 0,026 mm 0,0 UV-I 67 W/m -0,3 C -0,0 C 11,1 km/h (2 Bft) 98,37 %
03.02.2018 11:00 0,9 C 4,4 C 94 % 1005,5 hPa 0,0 l/m 7,4 km/h (2 Bft) W-SW 0,00 h 0,025 mm 0,0 UV-I 105 W/m -0,0 C -0,2 C 11,7 km/h (2 Bft) 95,45 %
03.02.2018 12:00 0,9 C 4,4 C 95 % 1005,3 hPa 0,2 l/m 8,1 km/h (2 Bft) SW 0,00 h 0,051 mm 0,0 UV-I 95 W/m 0,2 C -0,7 C 12,8 km/h (3 Bft) 98,98 %
03.02.2018 13:00 1,2 C 4,4 C 94 % 1005,0 hPa 0,0 l/m 10,9 km/h (2 Bft) SW 0,00 h 0,025 mm 0,0 UV-I 76 W/m 0,3 C -2,8 C 16,7 km/h (3 Bft) 97,69 %
03.02.2018 14:00 1,5 C 4,4 C 92 % 1004,6 hPa 0,0 l/m 10,9 km/h (2 Bft) SW 0,00 h 0,026 mm 0,0 UV-I 110 W/m 0,4 C -2,4 C 16,7 km/h (3 Bft) 98,29 %
03.02.2018 15:00 1,8 C 4,4 C 90 % 1004,5 hPa 0,0 l/m 11,4 km/h (2 Bft) SW 0,00 h 0,051 mm 0,0 UV-I 91 W/m 0,3 C -2,4 C 17,4 km/h (3 Bft) 95,53 %
03.02.2018 16:00 1,8 C 4,4 C 88 % 1004,6 hPa 0,0 l/m 12,2 km/h (2 Bft) SW 0,00 h 0,050 mm 0,0 UV-I 20 W/m 0,0 C -3,0 C 18,7 km/h (3 Bft) 99,31 %
03.02.2018 17:00 1,5 C 4,4 C 88 % 1005,1 hPa 0,0 l/m 12,4 km/h (3 Bft) W-SW 0,00 h 0,026 mm 0,0 UV-I 0 W/m -0,2 C -3,4 C 19,1 km/h (3 Bft) 98,08 %
03.02.2018 18:00 1,3 C 4,4 C 88 % 1005,7 hPa 0,0 l/m 12,6 km/h (3 Bft) W-SW 0,00 h 0,025 mm 0,0 UV-I 0 W/m -0,5 C -3,8 C 19,2 km/h (3 Bft) 98,17 %
03.02.2018 19:00 1,3 C 4,4 C 89 % 1006,2 hPa 0,0 l/m 12,6 km/h (3 Bft) W-SW 0,00 h 0,026 mm 0,0 UV-I 0 W/m -0,3 C -3,8 C 20,3 km/h (4 Bft) 95,54 %
03.02.2018 20:00 0,6 C 4,4 C 92 % 1006,7 hPa 0,0 l/m 8,1 km/h (2 Bft) W 0,00 h 0,000 mm 0,0 UV-I 0 W/m -0,6 C -1,5 C 12,8 km/h (3 Bft) 99,15 %
03.02.2018 21:00 0,7 C 4,4 C 93 % 1007,2 hPa 0,0 l/m 7,3 km/h (2 Bft) W-SW 0,00 h 0,000 mm 0,0 UV-I 0 W/m -0,3 C -0,7 C 11,3 km/h (2 Bft) 97,88 %
03.02.2018 22:00 0,1 C 4,4 C 96 % 1007,7 hPa 0,0 l/m 4,4 km/h (1 Bft) W-SW 0,00 h 0,000 mm 0,0 UV-I 0 W/m -0,5 C -0,5 C 7,1 km/h (2 Bft) 98,32 %
03.02.2018 23:00 -0,2 C 4,4 C 96 % 1007,9 hPa 0,0 l/m 3,3 km/h (1 Bft) S-SW 0,00 h 0,000 mm 0,0 UV-I 0 W/m -0,8 C -0,2 C 5,3 km/h (1 Bft) 96,21 %
04.02.2018 00:00 -0,4 C 4,4 C 95 % 1008,2 hPa 0,0 l/m 2,4 km/h (1 Bft) SW 0,00 h 0,000 mm 0,0 UV-I 0 W/m -1,0 C -0,4 C 3,9 km/h (1 Bft) 98,46 %
04.02.2018 01:00 -0,2 C 4,4 C 95 % 1008,6 hPa 0,0 l/m 4,9 km/h (1 Bft) SW 0,00 h 0,000 mm 0,0 UV-I 0 W/m -0,8 C -0,4 C 8,0 km/h (2 Bft) 98,94 %
04.02.2018 02:00 -0,1 C 4,4 C 95 % 1009,1 hPa 0,0 l/m 7,6 km/h (2 Bft) SW 0,00 h 0,000 mm 0,0 UV-I 0 W/m -0,8 C -1,3 C 12,2 km/h (2 Bft) 96,99 %
04.02.2018 03:00 0,1 C 4,4 C 95 % 1009,4 hPa 0,0 l/m 6,0 km/h (2 Bft) SW 0,00 h 0,000 mm 0,0 UV-I 0 W/m -0,5 C -0,1 C 9,6 km/h (2 Bft) 97,13 %
04.02.2018 04:00 -0,0 C 4,4 C 94 % 1010,1 hPa 0,0 l/m 5,3 km/h (1 Bft) SW 0,00 h 0,000 mm 0,0 UV-I 0 W/m -0,8 C -0,1 C 8,1 km/h (2 Bft) 97,76 %
04.02.2018 05:00 -0,3 C 4,4 C 94 % 1010,7 hPa 0,0 l/m 5,2 km/h (1 Bft) W-SW 0,00 h 0,000 mm 0,0 UV-I 0 W/m -1,1 C -0,4 C 7,7 km/h (2 Bft) 99,03 %
04.02.2018 06:00 -1,1 C 4,4 C 95 % 1011,2 hPa 0,0 l/m 3,6 km/h (1 Bft) W-SW 0,00 h 0,000 mm 0,0 UV-I 0 W/m -1,9 C -1,1 C 5,2 km/h (1 Bft) 96,57 %
04.02.2018 07:00 -1,2 C 4,4 C 96 % 1012,4 hPa 0,0 l/m 1,3 km/h (1 Bft) W-SW 0,03 h 0,000 mm 0,0 UV-I 10 W/m -1,8 C -1,2 C 2,4 km/h (1 Bft) 97,44 %
04.02.2018 08:00 -0,5 C 4,4 C 96 % 1013,4 hPa 0,0 l/m 2,6 km/h (1 Bft) SW 0,00 h 0,000 mm 0,0 UV-I 41 W/m -1,1 C -0,5 C 4,3 km/h (1 Bft) 98,29 %
04.02.2018 09:00 0,4 C 4,4 C 94 % 1014,1 hPa 0,0 l/m 2,8 km/h (1 Bft) W-SW 0,37 h 0,025 mm 0,4 UV-I 156 W/m -0,5 C 0,4 C 4,5 km/h (1 Bft) 98,40 %
04.02.2018 10:00 1,3 C 4,4 C 90 % 1014,7 hPa 0,6 l/m 5,1 km/h (1 Bft) W-SW 0,63 h 0,051 mm 0,5 UV-I 244 W/m -0,2 C 1,1 C 8,0 km/h (2 Bft) 97,89 %
04.02.2018 11:00 1,7 C 4,4 C 88 % 1015,2 hPa 0,2 l/m 6,6 km/h (2 Bft) SW 0,80 h 0,076 mm 0,6 UV-I 286 W/m -0,2 C 1,1 C 9,9 km/h (2 Bft) 97,98 %
04.02.2018 12:00 2,2 C 4,4 C 84 % 1015,6 hPa 0,0 l/m 6,2 km/h (2 Bft) W-SW 0,43 h 0,102 mm 0,6 UV-I 234 W/m -0,2 C 1,7 C 10,1 km/h (2 Bft) 95,93 %
04.02.2018 13:00 2,0 C 4,4 C 84 % 1015,9 hPa 0,0 l/m 5,1 km/h (1 Bft) W 0,53 h 0,102 mm 0,6 UV-I 235 W/m -0,4 C 1,8 C 8,4 km/h (2 Bft) 97,51 %
04.02.2018 14:00 2,4 C 4,4 C 80 % 1016,3 hPa 0,0 l/m 5,7 km/h (1 Bft) S-SW 0,87 h 0,076 mm 0,5 UV-I 279 W/m -0,7 C 2,2 C 8,9 km/h (2 Bft) 98,15 %
04.02.2018 15:00 2,3 C 4,4 C 80 % 1016,8 hPa 0,0 l/m 6,8 km/h (2 Bft) S-SW 1,00 h 0,101 mm 0,0 UV-I 178 W/m -0,7 C 1,5 C 11,3 km/h (2 Bft) 98,44 %
04.02.2018 16:00 1,6 C 4,4 C 87 % 1017,4 hPa 0,2 l/m 3,5 km/h (1 Bft) S 0,90 h 0,077 mm 0,0 UV-I 57 W/m -0,3 C 1,6 C 6,6 km/h (2 Bft) 97,16 %
04.02.2018 17:00 0,1 C 4,4 C 92 % 1018,1 hPa 0,0 l/m 0,7 km/h (0 Bft) S 0,00 h 0,025 mm 0,0 UV-I 8 W/m -1,1 C 0,1 C 2,0 km/h (1 Bft) 96,93 %
04.02.2018 18:00 -0,9 C 4,4 C 94 % 1018,9 hPa 0,0 l/m 1,1 km/h (1 Bft) S 0,00 h 0,000 mm 0,0 UV-I 0 W/m -1,7 C -0,9 C 2,3 km/h (1 Bft) 97,26 %
04.02.2018 19:00 -1,2 C 4,4 C 94 % 1019,4 hPa 0,0 l/m 1,2 km/h (1 Bft) S 0,00 h 0,000 mm 0,0 UV-I 0 W/m -2,0 C -1,2 C 2,8 km/h (1 Bft) 98,50 %
04.02.2018 20:00 -1,7 C 4,4 C 95 % 1019,7 hPa 0,0 l/m 0,6 km/h (0 Bft) S 0,00 h 0,000 mm 0,0 UV-I 0 W/m -2,4 C -1,7 C 1,4 km/h (1 Bft) 96,46 %
04.02.2018 21:00 -2,0 C 4,4 C 96 % 1020,2 hPa 0,0 l/m 1,1 km/h (1 Bft) S 0,00 h 0,000 mm 0,0 UV-I 0 W/m -2,6 C -2,0 C 2,6 km/h (1 Bft) 97,89 %
04.02.2018 22:00 -2,1 C 4,4 C 96 % 1020,8 hPa 0,0 l/m 2,8 km/h (1 Bft) NO 0,00 h 0,000 mm 0,0 UV-I 0 W/m -2,6 C -2,1 C 3,9 km/h (1 Bft) 97,54 %
04.02.2018 23:00 -2,3 C 4,4 C 96 % 1021,2 hPa 0,0 l/m 1,5 km/h (1 Bft) O-NO 0,00 h 0,000 mm 0,0 UV-I 0 W/m -2,9 C -2,3 C 2,4 km/h (1 Bft) 96,97 %
Min-Datum _ 04.02.18 29.01.18 02.02.18 01.02.18 - 29.01.18 - - - - - 04.02.18 03.02.18 30.01.18 29.01.18
_ Min-Zeit 23:56 00:00 14:56 12:40 - 16:44 - - - - - 23:56 21:46 19:20 00:02
Minimum _ -3,1 C 3,9 C 70 % 1002,2 hPa - 0,0 km/h (0 Bft) - - - - - -3,8 C -8,3 C 0,0 km/h (0 Bft) 10,53 %
Max-Datum _ 29.01.18 01.02.18 31.01.18 29.01.18 30.01.18 29.01.18 - 31.01.18 29.01.18 29.01.18 31.01.18 29.01.18 29.01.18 30.01.18 29.01.18
_ Max-Zeit 13:46 12:50 05:28 00:00 07:38 23:40 - 14:40 12:00 11:36 11:18 14:34 13:46 03:14 00:00
Maximum _ 11,2 C 5,0 C 98 % 1033,2 hPa 0,8 l/m 31,9 km/h
W (5 Bft)
- 0,08 h 0,203 mm 1,1 UV-I 533 W/m 7,0 C 11,2 C 57,9 km/h
W-SW (7 Bft)
100,00 %
Durchschnitt _ 3,2 C 4,4 C 89 % 1015,0 hPa #6,0 l/m 6,4 km/h (2 Bft) W-SW #21:28 h #4,700 mm 0,6 UV-I 115 W/m 1,6 C 1,8 C 10,2 km/h (2 Bft) 97,86 %